Weather in Kalasin

Thailand     16°26′31″N   103°32′22″E
temp.,
°C
wind,
m/s
gust,
m/s
humid.,
%
clouds,
%
prec.,
mm/h
press.,
hPa
HPBL,
m
18 january, mon
mon1801:00+16ene7166095 0.0 1019717
04:00+15ne5146390 0.0 1019641
07:00+13ne4126361 0.0 1020592
10:00+20ene69450 0.0 1021992
13:00+25ene67340 0.0 10171457
16:00+25ene56330 0.0 10141623
19:00+18e511490 0.0 1014335
22:00+15e512590 0.0 1017351
19 january, tue
tue1901:00+13ene39643 0.0 1016270
04:00+12ne396541 0.0 1015253
07:00+11ene346821 0.0 101789
10:00+20ene564637 0.0 1017799
13:00+25ne333856 0.0 10141324
16:00+26ne22352 0.0 10111689
19:00+20ne12501 0.0 101223
22:00+18ne22540 0.0 101423
20 january, wed
wed2001:00+16e33723 0.0 101444
04:00+14ene23821 0.0 101324
07:00+14ene12810 0.0 101523
10:00+23ne22470 0.0 1016556
13:00+29wnw12314 0.0 10131632
16:00+29wnw222619 0.0 10091872
19:00+23n123911 0.0 101023
22:00+21nne234449 0.0 101223
21 january, thu
thu2101:00+19ene225135 0.0 101223
04:00+18ene235768 0.0 101123
07:00+17ene126635 0.0 101223
10:00+26ene224123 0.0 1013555
13:00+32n112730 0.0 10101785
16:00+31nnw11230 0.0 10072282
19:00+25n22340 0.0 100824
22:00+22ne33410 0.0 101028
22 january, fri
fri2201:00+21ne22481 0.0 101024
04:00+18e33660 0.0 101047
07:00+17ene34890 0.0 101276
10:00+27ne33480 0.0 1013662
13:00+32n22270 0.0 10092172
16:00+32nnw32230 0.0 10072641
19:00+26nw22330 0.0 100824
22:00+23ene23410 0.0 101027